BEIDOU-3 M13 (C32)

Last updated on Sat Aug 15 2026 00:03:26 GMT+0000 (Coordinated Universal Time)

1 43622U 18072A 26225.45315199 -.00000032 00000+0 00000+0 0 9993 2 43622 56.6765 60.7716 0005009 336.4223 23.6195 1.86230889 53726
UTC large
Height (km)
Speed (km/s)
/
Latitude / Longitude
Inclination (degrees)
Orbital Period (minutes)
Azimuth
Elevation
Range (km)
Doppler Factor

Next 0 passes for location: London (51.5072 / 0.1276)

No passes found over London.
BEIDOU-3 M13 (C32)